| time (UTC) | temp F | wind direction | speed knots | gust knots | rain 1hr in | rain 24hr in | rain mn in | humidity % | barometer mb |
| 20260504044551 | 58 | 360 | 3.5 | 7.0 | 0.00 | 0.02 | 0.02 | 66 | 1005.5 |
| 20260504043047 | 59 | 360 | 3.5 | 10.4 | 0.00 | 0.02 | 0.02 | 65 | 1005.4 |
| 20260504041544 | 59 | 360 | 3.5 | 7.8 | 0.00 | 0.02 | 0.02 | 64 | 1005.3 |
| 20260504034609 | 59 | 360 | 2.6 | 7.8 | 0.00 | 0.02 | 0.02 | 63 | 1005.3 |
| 20260504033047 | 60 | 360 | 2.6 | 8.7 | 0.00 | 0.02 | 0.02 | 63 | 1005.5 |
| 20260504031546 | 60 | 360 | 2.6 | 5.2 | 0.00 | 0.02 | 0.02 | 62 | 1005.8 |
| 20260504024549 | 61 | 360 | 1.7 | 7.0 | 0.00 | 0.02 | 0.02 | 61 | 1005.8 |
| 20260504023043 | 61 | 360 | 2.6 | 7.8 | 0.00 | 0.02 | 0.02 | 61 | 1005.7 |
| 20260504021550 | 62 | 360 | 1.7 | 5.2 | 0.00 | 0.02 | 0.02 | 60 | 1005.7 |
| 20260504020047 | 62 | 360 | 1.7 | 3.5 | 0.00 | 0.02 | 0.02 | 59 | 1005.5 |
| 20260504014545 | 63 | 360 | 3.5 | 7.8 | 0.00 | 0.02 | 0.02 | 58 | 1005.3 |
| 20260504013051 | 64 | 360 | 2.6 | 7.8 | 0.00 | 0.02 | 0.02 | 57 | 1005.3 |
| 20260504011544 | 64 | 360 | 3.5 | 8.7 | 0.00 | 0.02 | 0.02 | 55 | 1005.1 |
| 20260504010043 | 65 | 360 | 3.5 | 10.4 | 0.00 | 0.02 | 0.02 | 53 | 1005.0 |
| 20260504004546 | 66 | 360 | 3.5 | 7.8 | 0.00 | 0.02 | 0.02 | 52 | 1005.0 |
| 20260504003044 | 67 | 360 | 4.3 | 9.6 | 0.00 | 0.02 | 0.02 | 51 | 1004.9 |
| 20260504001600 | 68 | 360 | 5.2 | 10.4 | 0.00 | 0.02 | 0.02 | 49 | 1005.0 |
| 20260504000047 | 69 | 360 | 7.0 | 14.8 | 0.00 | 0.02 | 0.02 | 48 | 1005.1 |
| 20260503234552 | 69 | 360 | 6.1 | 13.0 | 0.00 | 0.02 | 0.02 | 46 | 1005.0 |
| 20260503233046 | 69 | 360 | 8.7 | 19.1 | 0.00 | 0.02 | 0.02 | 46 | 1005.1 |
| 20260503231552 | 69 | 360 | 8.7 | 20.0 | 0.00 | 0.02 | 0.02 | 45 | 1005.2 |
| 20260503230047 | 69 | 360 | 10.4 | 19.1 | 0.00 | 0.02 | 0.02 | 45 | 1005.2 |
| 20260503224546 | 69 | 360 | 8.7 | 17.4 | 0.00 | 0.02 | 0.02 | 45 | 1005.3 |
| 20260503223048 | 69 | 360 | 10.4 | 18.2 | 0.00 | 0.02 | 0.02 | 45 | 1005.4 |
| 20260503221544 | 68 | 360 | 8.7 | 23.5 | 0.00 | 0.02 | 0.02 | 46 | 1005.3 |
| 20260503220052 | 68 | 360 | 7.8 | 16.5 | 0.00 | 0.02 | 0.02 | 46 | 1005.6 |
| 20260503214547 | 68 | 360 | 11.3 | 23.5 | 0.00 | 0.02 | 0.02 | 45 | 1005.5 |
| 20260503213047 | 67 | 360 | 11.3 | 26.1 | 0.00 | 0.02 | 0.02 | 44 | 1005.8 |
| 20260503211549 | 67 | 360 | 13.9 | 21.7 | 0.00 | 0.02 | 0.02 | 45 | 1006.3 |
| 20260503210043 | 66 | 360 | 11.3 | 22.6 | 0.00 | 0.02 | 0.02 | 45 | 1006.7 |
| 20260503204553 | 65 | 360 | 11.3 | 26.1 | 0.00 | 0.02 | 0.02 | 45 | 1006.9 |
| 20260503203050 | 66 | 360 | 11.3 | 27.8 | 0.00 | 0.02 | 0.02 | 44 | 1007.2 |
| 20260503201550 | 65 | 360 | 10.4 | 23.5 | 0.00 | 0.02 | 0.02 | 44 | 1007.5 |
| 20260503200046 | 65 | 360 | 11.3 | 23.5 | 0.00 | 0.02 | 0.02 | 45 | 1007.6 |
| 20260503194546 | 65 | 360 | 10.4 | 26.1 | 0.00 | 0.02 | 0.02 | 46 | 1007.8 |
| 20260503193102 | 64 | 360 | 13.0 | 30.4 | 0.00 | 0.02 | 0.02 | 50 | 1007.9 |
| 20260503191552 | 62 | 360 | 12.2 | 26.1 | 0.00 | 0.02 | 0.02 | 55 | 1008.3 |
| 20260503190107 | 61 | 360 | 9.6 | 23.5 | 0.00 | 0.02 | 0.02 | 57 | 1008.3 |
| 20260503184543 | 59 | 360 | 10.4 | 20.0 | 0.00 | 0.02 | 0.02 | 61 | 1008.7 |
| 20260503183057 | 58 | 360 | 10.4 | 25.2 | 0.00 | 0.02 | 0.02 | 64 | 1009.0 |
| 20260503181545 | 56 | 360 | 9.6 | 20.9 | 0.00 | 0.02 | 0.02 | 66 | 1009.4 |
| 20260503180053 | 55 | 360 | 7.8 | 20.0 | 0.00 | 0.02 | 0.02 | 67 | 1009.6 |
| 20260503174542 | 55 | 360 | 8.7 | 17.4 | 0.01 | 0.02 | 0.02 | 69 | 1009.8 |
| 20260503173103 | 52 | 360 | 4.3 | 14.8 | 0.01 | 0.02 | 0.02 | 78 | 1010.3 |
| 20260503171553 | 50 | 360 | 4.3 | 12.2 | 0.01 | 0.02 | 0.02 | 81 | 1010.7 |
| 20260503081547 | 45 | 360 | 2.6 | 5.2 | 0.00 | 0.00 | 0.00 | 62 | 1014.2 |
| 20260503071605 | 45 | 360 | 0.9 | 3.5 | 0.00 | 0.00 | 0.00 | 63 | 1014.3 |